Location: Oshawa
(43.9000°N, 78.8670°W)
Time: 23:14:22
(UTC-04:00)

Iridium 54 - Visible Passes

Search period start: 26 April 2017 00:00
Search period end: 06 May 2017 00:00
Orbit: 776 x 779 km, 86.4° (Epoch: 25 April)

Date Brightness Start Highest point End Pass type
(mag) Time Alt. Az. Time Alt. Az. Time Alt. Az.
26 Apr 7.7 00:53:38 10° NW 00:56:42 16° WNW 00:56:42 16° WNW visible
26 Apr 6.3 22:38:07 10° NNE 22:42:56 36° E 22:42:58 36° E visible
27 Apr 7.0 00:19:06 10° NNW 00:23:27 28° W 00:23:27 28° W visible
27 Apr 6.9 22:05:14 10° NNE 22:09:08 21° ENE 22:09:43 20° E visible
27 Apr 6.1 23:45:07 10° NNW 23:50:09 50° W 23:50:12 50° W visible
28 Apr 7.5 21:33:25 10° NE 21:35:11 12° ENE 21:36:29 11° E visible
28 Apr 5.4 23:11:26 10° N 23:16:41 89° W 23:16:58 81° S visible
29 Apr 8.0 00:55:11 10° WNW 00:56:32 11° WNW 00:57:27 11° W visible
29 Apr 5.7 22:37:59 10° N 22:43:05 51° E 22:43:45 48° ESE visible
30 Apr 7.4 00:19:40 10° NNW 00:23:23 20° W 00:24:14 19° W visible
30 Apr 6.5 22:04:51 10° NNE 22:09:23 29° ENE 22:10:32 26° E visible
30 Apr 6.7 23:45:25 10° NNW 23:50:07 35° W 23:51:01 33° WSW visible
01 May 7.2 21:32:13 10° NNE 21:35:31 17° ENE 21:37:20 14° E visible
01 May 5.8 23:11:33 10° N 23:16:43 63° W 23:17:49 50° SW visible
02 May 5.4 22:37:58 10° N 22:43:12 73° E 22:44:38 48° SSE visible
03 May 7.9 00:20:34 10° NW 00:23:14 14° WNW 00:25:07 12° W visible
03 May 6.1 22:04:38 10° N 22:09:34 40° E 22:11:27 30° SE visible
03 May 7.3 23:45:51 10° NNW 23:50:02 25° W 23:51:57 20° WSW visible
04 May 6.8 21:31:39 10° NNE 21:35:48 23° ENE 21:38:17 17° ESE visible
04 May 6.4 23:11:46 10° NNW 23:16:43 44° W 23:18:47 30° SW visible
05 May 7.4 20:59:26 10° NE 21:01:53 13° ENE 21:04:18 10° E visible
05 May 5.5 22:38:02 10° N 22:43:16 80° W 22:45:37 34° S visible
